Regional Weather Roundup
Issued by NWS State College, PA

Home | Current Version | Previous Version | Text Only | Print | Product List | Glossary On
Versions: 1 2 3 4 5 6 7 8 9 10 11 12 13 14 15 16 17 18 19 20 21 22 23 24 25 26 27 28 29 30 31 32 33 34 35 36 37 38 39 40 41 42 43 44 45 46 47 48 49 50
000
ASUS41 KCTP 290703
RWRCTP

REGIONAL WEATHER ROUNDUP
NATIONAL WEATHER SERVICE STATE COLLEGE PA
300 AM EDT FRI JUL 29 2016

Note: "fair" indicates few or no clouds below 12,000 feet with no
significant weather and/or obstructions to visibility.

* = STATION THAT DOES NOT REPORT PRECIPITATION /E.G. RAIN...SNOW...ETC/
    THUNDER OR FOG.

PAZ002>004-007>009-013>016-020>023-029>032-290800-
WESTERN PENNSYLVANIA

CITY           SKY/WX    TMP DP  RH WIND       PRES   REMARKS
ERIE           PTCLDY    70  65  84 S3        29.91S
MEADVILLE      FOG       62  61  96 CALM      29.94R VSB 1/2
FRANKLIN*      PTCLDY    63  61  94 CALM      29.95S
NEW CASTLE     FOG       64  64 100 CALM      29.93F VSB 1/4
BEAVER COUNTY  NOT AVBL
BUTLER*        CLOUDY    64  63  94 CALM      29.95F
PITTSBURGH INT PTCLDY    65  63  93 SE3       29.92F FOG
PITTSBURGH     FOG       69  67  93 CALM      29.92F VSB<1/4
INDIANA*       FOG       68  68 100 CALM      29.97S VSB 0
LATROBE        CLOUDY    66  66 100 CALM      29.94S FOG
WASHINGTON CO* CLOUDY    68  66  94 CALM      29.92F VSB 1/4
$$

PAZ004>006-010>012-017>019-024>028-033>037-041-042-045-046-049>053-290800-
CENTRAL PENNSYLVANIA

CITY           SKY/WX    TMP DP  RH WIND       PRES   REMARKS
BRADFORD       FOG       65  64  97 CALM      29.96S VSB 1
DUBOIS         FOG       65  62  90 CALM      29.95R VSB 1/4
CLEARFIELD     FOG       67  65  93 CALM      29.94S VSB 1/4
JOHNSTOWN      FOG       65  62  90 W5        29.96S VSB<1/4
ALTOONA        MOCLDY    66  66 100 CALM      29.93F FOG
STATE COLLEGE  PTCLDY    67  66  99 CALM      29.92F FOG
WILLIAMSPORT   CLOUDY    71  65  81 CALM      29.87F
SELINSGROVE    LGT RAIN  70  70 100 CALM      29.89F
FT INDIANTOWN  LGT RAIN  71  70  97 E2        29.86F
CAPITAL CITY   LGT RAIN  75  71  87 NW6       29.86F
HARRISBURG     RAIN      74  74 100 N6        29.85F FOG
YORK           LGT RAIN  73  72  96 CALM      29.86F FOG
$$

PAZ038>040-043-044-047-048-054-055-060>062-067>071-290800-
EASTERN PENNSYLVANIA

CITY           SKY/WX    TMP DP  RH WIND       PRES   REMARKS
SCRANTON       LGT RAIN  71  69  93 CALM      29.90S FOG
MOUNT POCONO   LGT RAIN  67  65  93 CALM      29.94S
ALLENTOWN      LGT RAIN  74  71  91 CALM      29.87F FOG
QUAKERTOWN*    CLOUDY    72  72 100 CALM      29.86F
READING        RAIN      72  69  90 N7        29.85F FOG
LANCASTER      RAIN      71  71 100 N6        29.86F FOG
COATESVILLE    LGT RAIN  72  72 100 N5        29.86F
POTTSTOWN      LGT RAIN  72  72 100 CALM      29.87F FOG
BLUE BELL      CLOUDY    70  70 100 N3        29.83F
DOYLESTOWN     HVY RAIN  71  71 100 CALM      29.85F FOG
WILLOW GROVE   NOT AVBL
NORTH PHILA    MOCLDY    75  74  96 NE9       29.83F FOG
PHILADELPHIA   CLOUDY    75  72  90 NE3       29.82F
$$




USA.gov is the U.S. government's official web portal to all federal, state and local government web resources and services.